Location: Home
(42.5358°N, 72.7383°W)
Time: 19:54:53
(UTC-04:00)

First-Move - Pass Details

Date: 19 August 2022
Orbit: 569 x 659 km, 97.6° (Epoch: 27 September)

Event Time Altitude Azimuth Distance (km) Brightness Sun altitude
Rises 05:16:20 0° 6° (N) 2,878 ? -8.6°
Reaches altitude 10° 05:18:36 10° 1° (N) 1,954 ? -8.3°
Maximum altitude 05:22:40 48° 288° (WNW) 781 ? -7.6°
Drops below altitude 10° 05:26:37 10° 214° (SSW) 1,894 ? -6.9°
Enters shadow 05:28:12 - 209° (SSW) 2,539 ? -6.7°
